{"data":{"norad_id":44910,"epoch":"2026-09-20T03:25:34.509792Z","epoch_age_seconds":52707,"freshness":"FRESH","line1":"1 44910U 19097A   26263.14276053  .00000145  00000+0  00000+0 0  9999","line2":"2 44910   5.1562  73.8415 0002984 170.0024 206.9817  1.00276741 24652","mean_motion":1.00276741,"eccentricity":0.0002984,"inclination_deg":5.1562,"raan_deg":73.8415,"arg_perigee_deg":170.0024,"mean_anomaly_deg":206.9817,"bstar":0,"rev_number":2465,"period_min":1436.025927488,"perigee_km":35772.624130251,"apogee_km":35797.787213158,"semimajor_km":42163.342671705,"source":"CELESTRAK","updated_at":"2026-09-20T09:00:35.291763Z"}}